Location: Betpouey
(42.8833°N, 0.0333°E)
Time: 04:42:03
(UTC+00:00)

Meteor 2-13 Rocket - Pass Details

Date: 01 July 2021
Orbit: 935 x 958 km, 82.5° (Epoch: 26 July)

Event Time Altitude Azimuth Distance (km) Brightness Sun altitude
Exits shadow 22:31:16 30° 120° (ESE) 1,646 5.3 -20.7°
Maximum altitude 22:32:58 35° 88° (E) 1,492 5.3 -20.8°
Drops below altitude 10° 22:38:28 10° 25° (NNE) 2,693 7.4 -21.2°
Sets 22:41:10 0° 17° (NNE) 3,641 8.3 -21.4°
